Theta_e
315 315 315 315 315 313 313 312 312 311 310 318 317 323 316 316 311 317 319 321 318 312 306 308 307 304 305 308 307 308 306 306 305 305 305 305 305 304 302 303 302 303 302 301 300 301 298 299 298 300 301 301 303 306 307 307 307 306 304 306 306 309 301 298 299 303 305 306 308 308 309 307 305 306 307 307 304 305 303 303 304 302 309 306 304 302 304
315 315 315 315 314 313 313 312 312 312 311 314 318 318 315 314 311 312 317 320 319 310 303 303 304 303 305 305 304 306 305 305 305 305 305 305 305 304 304 304 304 303 305 302 300 302 296 300 300 299 302 301 306 306 307 307 305 304 302 302 305 299 303 299 296 295 298 300 303 303 306 306 304 303 306 307 307 307 306 304 307 301 302 306 302 297 304
315 315 315 314 314 313 312 312 312 312 312 313 318 316 318 317 316 314 314 318 315 306 308 306 304 304 304 305 303 304 305 306 306 305 304 307 306 305 303 304 304 304 304 303 304 303 301 299 302 303 302 301 305 305 306 307 305 306 307 318 308 301 301 300 294 291 290 289 291 294 297 300 304 306 305 306 305 304 303 300 305 296 304 306 303 302 310
315 315 315 314 314 313 312 312 312 312 311 310 320 320 317 312 307 310 310 313 312 310 311 308 306 304 305 303 302 304 302 305 306 306 305 306 306 306 306 306 306 303 302 300 300 301 303 301 300 301 301 302 303 305 305 305 305 311 317 312 307 301 303 304 302 299 295 298 300 303 305 302 299 302 303 303 305 306 305 304 301 299 305 306 308 308 308
315 315 315 314 314 313 313 312 312 312 310 310 316 323 322 315 306 305 305 311 310 307 309 308 306 303 305 302 301 302 300 303 304 306 303 306 305 305 304 304 302 303 302 301 300 301 301 303 302 300 301 303 303 306 305 305 307 314 310 308 304 304 300 301 303 302 302 301 301 303 304 301 302 301 301 303 303 304 303 300 299 309 304 299 311 311 308
315 316 316 315 313 313 313 312 312 311 310 309 322 318 318 306 307 311 313 304 302 306 304 308 306 306 307 302 303 301 302 301 302 305 305 306 307 302 306 305 304 305 302 303 302 300 301 300 299 302 303 302 303 302 304 304 305 307 305 307 303 301 298 301 300 300 302 302 301 302 302 301 302 302 302 301 302 302 301 303 304 305 302 302 311 312 309
316 316 316 316 313 313 314 313 312 311 310 311 326 315 316 315 311 309 310 306 306 305 304 306 306 304 305 303 305 302 302 300 300 302 305 304 304 305 302 302 304 304 305 304 301 304 299 299 303 303 302 302 301 300 301 304 305 304 304 305 308 303 298 301 301 300 301 301 301 302 301 300 301 300 301 301 302 302 303 303 304 305 308 311 311 313 311
316 316 316 316 314 314 314 313 312 311 308 320 323 314 311 310 309 309 314 312 308 308 308 307 307 303 306 304 301 304 303 302 303 304 304 303 302 305 302 303 304 304 304 305 304 304 305 303 304 305 304 303 303 303 303 303 305 305 303 304 308 301 298 302 301 298 298 300 301 301 300 300 298 300 301 300 301 301 303 304 305 307 310 312 312 310 309
316 316 316 316 314 314 314 313 312 311 310 327 322 315 317 319 318 318 312 308 305 308 308 308 308 306 308 305 303 305 302 301 303 301 305 304 303 305 303 304 304 304 307 306 305 307 306 306 305 306 305 302 305 303 304 306 303 304 302 303 304 302 299 303 300 296 296 300 299 300 300 299 298 299 299 299 299 298 301 302 305 305 308 310 310 307 307
316 316 316 315 315 314 314 313 313 311 312 327 327 314 321 322 324 324 315 307 307 305 307 307 307 302 304 304 303 304 302 304 306 304 305 304 305 306 305 305 305 304 304 305 306 307 308 307 308 307 308 308 307 308 307 306 304 304 304 306 301 303 300 298 298 294 294 299 300 299 299 297 294 296 298 300 301 301 302 305 307 307 313 308 305 307 313
316 315 315 315 315 315 315 314 314 312 316 321 322 321 317 317 317 320 318 308 307 307 311 305 304 305 306 305 305 305 304 306 307 302 301 306 304 306 305 307 305 303 305 307 310 311 310 309 309 309 308 307 306 306 306 306 305 304 303 303 303 303 301 299 302 294 295 298 299 299 295 288 290 301 303 302 300 300 299 302 306 309 313 310 313 313 315
315 315 315 315 315 315 315 315 314 311 312 319 323 322 320 323 322 321 315 306 304 307 307 303 305 305 305 304 306 305 305 305 305 309 304 303 305 309 308 307 309 303 307 312 310 309 310 309 308 307 305 306 306 306 306 304 305 307 305 302 301 302 301 298 301 296 294 298 298 293 288 290 302 305 306 305 304 303 302 307 308 311 312 315 313 313 313
315 315 315 315 315 315 315 315 314 313 312 317 323 324 323 325 322 319 316 310 306 308 307 304 306 306 306 306 305 304 306 306 306 306 306 306 305 306 306 307 305 305 309 308 308 306 303 302 302 303 303 303 303 304 303 303 302 305 305 304 301 300 300 299 297 297 298 295 294 286 289 301 303 305 307 309 308 307 307 306 309 311 311 314 312 313 314
315 315 315 315 315 315 314 315 314 314 312 313 319 326 325 325 320 321 319 312 308 306 306 307 307 306 308 307 306 306 308 307 307 309 305 308 307 306 306 307 307 308 309 309 306 306 304 302 299 297 298 299 300 298 300 303 303 303 303 304 304 302 303 300 295 301 292 294 294 293 301 299 301 301 304 305 304 305 305 299 305 312 313 314 313 313 314
315 315 315 315 314 314 314 315 315 314 313 310 320 327 327 326 326 322 323 318 308 307 308 306 307 308 306 307 308 308 307 307 306 306 307 306 308 308 309 310 310 310 307 309 306 304 303 302 297 296 297 295 291 294 301 298 303 304 304 304 305 306 300 303 297 296 298 293 292 293 293 289 296 304 307 307 306 306 309 307 302 311 313 315 313 312 312
314 315 315 315 314 314 314 315 315 314 313 310 322 327 330 330 330 326 324 319 312 305 307 309 309 305 308 307 308 305 306 307 309 307 306 307 308 308 310 312 312 310 310 305 305 304 303 298 295 295 294 294 299 299 296 301 299 303 303 304 304 304 304 303 299 296 296 293 290 290 289 293 302 304 306 307 308 309 309 303 299 308 311 314 314 312 312
314 315 315 314 314 314 314 315 315 314 314 310 315 323 327 333 327 324 322 320 315 304 309 308 308 306 307 308 308 307 307 306 306 304 304 307 308 308 310 311 313 310 311 305 306 301 298 298 298 298 299 301 296 296 301 299 299 299 302 302 301 300 300 300 297 296 296 294 291 290 295 296 302 305 306 309 310 309 304 292 293 307 310 312 313 311 309
314 315 315 314 314 314 314 314 315 315 313 312 314 320 327 332 330 328 323 319 312 310 310 310 308 309 309 309 308 311 310 309 308 308 304 307 308 308 309 308 307 311 310 302 304 300 299 298 295 295 294 302 302 301 292 299 297 298 297 298 296 297 298 298 294 295 295 296 294 295 298 304 306 306 307 307 308 303 293 287 299 309 311 311 312 310 309
314 314 314 314 314 314 314 314 314 315 314 310 315 324 329 331 331 328 322 318 314 309 312 312 310 308 311 313 311 308 309 308 309 306 305 305 307 310 309 310 309 304 310 302 304 300 298 299 302 300 296 300 301 296 301 295 296 302 302 297 296 297 298 298 298 294 294 295 292 293 299 306 308 307 307 307 302 291 291 305 312 311 310 311 310 310 311
314 314 314 314 313 313 313 313 314 315 315 312 313 318 323 332 331 328 320 313 315 313 314 313 311 310 312 308 310 310 311 309 309 304 305 302 312 311 307 304 308 306 305 307 299 303 299 297 298 304 297 298 300 303 298 299 303 301 300 302 297 298 295 294 294 297 296 296 293 291 287 303 309 307 305 305 297 303 309 311 311 311 310 309 310 311 310
314 314 314 313 313 313 313 313 313 314 315 314 311 318 323 334 329 331 326 320 315 311 313 318 316 312 313 312 313 312 311 308 311 310 311 309 314 309 296 299 305 306 304 304 298 299 301 298 300 299 302 303 302 300 296 298 299 305 304 302 300 305 296 296 297 301 293 292 291 290 302 306 310 307 301 306 310 312 313 311 308 311 311 310 310 311 311
314 313 314 313 313 313 313 313 313 314 314 314 311 320 323 329 331 332 329 326 316 312 315 318 317 314 316 317 316 315 314 314 317 317 312 310 316 309 309 309 309 308 311 310 304 303 304 304 304 299 297 299 303 298 301 295 292 302 305 304 294 305 300 304 296 302 298 297 299 303 308 309 310 311 310 312 314 315 314 312 310 309 309 312 310 311 312
313 313 313 313 313 313 313 312 313 313 313 314 313 321 321 324 324 329 328 319 323 322 323 320 321 318 316 314 316 317 318 319 318 317 316 310 309 312 309 309 309 314 313 312 306 305 305 305 301 303 300 300 299 297 300 299 296 301 298 304 301 308 308 311 307 302 307 308 309 310 309 310 309 312 313 312 313 313 313 312 310 311 311 312 311 312 313
313 313 313 313 313 313 312 312 312 313 313 313 313 316 320 322 327 326 322 321 318 313 317 320 314 312 314 313 316 319 317 316 315 319 323 319 307 309 313 315 314 313 312 315 317 308 307 305 304 304 298 302 304 298 296 295 298 302 301 302 303 305 307 306 301 305 300 295 306 307 307 308 310 310 312 312 312 312 312 311 312 312 312 312 313 313 314
312 313 313 313 312 312 312 312 312 312 313 313 314 319 323 325 329 324 319 312 314 312 306 311 312 316 317 318 317 315 317 320 321 318 317 318 315 309 309 315 318 313 311 315 318 313 311 303 304 303 298 305 304 297 304 297 297 304 298 300 303 301 309 303 303 303 299 300 306 309 310 310 311 309 308 308 310 310 312 311 314 314 314 313 313 313 312
312 313 313 312 312 312 312 312 312 312 312 312 313 317 321 324 327 328 325 325 323 318 309 306 311 318 320 316 314 318 321 319 318 318 316 317 318 316 315 319 319 320 317 316 314 309 306 306 306 304 300 300 308 300 300 303 301 305 300 300 306 307 307 298 303 299 303 306 307 308 309 309 309 309 309 310 310 310 311 313 314 313 312 312 312 311 311
312 312 312 312 312 312 312 312 312 312 312 312 314 319 323 325 328 325 321 321 315 311 312 307 312 316 317 314 318 318 318 317 316 317 317 316 316 318 316 315 313 314 317 315 314 311 310 307 305 301 304 303 308 304 306 303 303 301 300 305 306 303 301 305 304 299 298 299 302 307 300 300 305 308 309 310 312 311 311 311 311 310 310 311 310 309 311
312 312 311 312 311 311 311 311 311 312 312 312 315 319 325 325 326 326 326 325 318 310 311 309 311 315 318 315 317 318 319 317 317 316 316 317 317 316 315 315 316 314 314 310 307 308 307 303 302 308 307 308 305 301 307 307 306 303 302 302 306 303 305 304 301 300 298 304 309 311 310 309 310 310 311 311 311 311 310 309 309 310 310 311 310 309 309
312 311 311 311 311 311 311 311 312 312 312 311 317 321 324 326 328 325 325 327 325 316 314 314 315 312 307 312 317 317 318 318 319 317 317 316 316 316 316 316 315 316 314 312 311 309 306 306 309 304 303 309 305 300 302 298 299 297 301 305 306 307 310 308 307 307 307 309 309 311 310 307 309 310 311 312 313 310 310 310 311 310 310 310 310 310 309
311 311 311 311 311 311 311 311 311 312 312 316 319 320 318 319 326 327 324 323 324 320 311 310 306 311 319 316 313 317 318 318 318 318 316 315 316 317 318 317 316 316 315 311 309 303 306 306 307 309 310 312 302 303 298 299 298 302 306 307 307 308 309 310 310 308 306 311 311 311 312 311 312 312 312 313 313 313 310 310 310 310 310 311 310 308 309
311 311 311 311 311 311 311 311 312 311 311 315 318 316 313 309 318 324 319 325 325 320 315 314 309 313 312 317 317 315 317 317 317 318 317 317 317 317 318 318 317 316 312 312 309 309 307 304 303 305 311 311 306 302 300 299 297 300 305 307 308 308 308 308 311 311 311 312 313 312 313 312 313 313 311 312 312 312 311 311 312 312 311 310 310 309 310
311 311 311 311 311 311 311 311 311 312 314 317 318 317 316 317 323 322 321 321 324 319 314 308 309 310 309 312 316 318 315 318 317 316 317 317 315 317 317 316 314 315 314 309 311 308 305 307 306 305 304 308 307 302 302 298 294 297 305 306 309 308 309 309 310 311 312 312 312 310 309 309 310 310 310 312 312 311 311 311 311 314 313 312 311 311 310
311 311 312 312 312 312 311 311 311 312 316 316 312 311 311 311 309 316 321 324 322 318 318 312 307 308 305 308 318 317 318 316 316 315 313 316 313 316 311 316 316 313 314 309 305 303 308 307 308 304 307 310 304 303 300 297 300 306 307 307 308 308 308 310 310 311 311 312 312 308 306 306 310 313 313 313 313 312 311 310 311 311 310 310 309 309 308
311 312 312 312 312 312 311 311 312 311 312 313 318 318 322 313 317 311 321 325 320 320 318 311 306 306 308 316 307 313 319 310 310 312 307 315 316 313 310 311 312 307 311 306 309 307 310 307 304 305 307 303 305 300 294 300 304 306 308 308 308 309 309 309 309 309 311 310 312 312 312 313 314 315 313 311 310 312 312 312 311 309 308 308 308 308 308
311 312 313 313 313 313 313 312 317 317 320 320 321 323 321 309 310 316 321 321 314 314 313 313 311 303 305 306 304 311 319 311 307 311 306 312 316 310 311 307 309 303 306 313 308 306 303 304 308 301 300 305 299 293 294 301 304 305 306 307 307 308 308 306 307 309 310 312 310 311 312 312 311 309 309 310 309 310 310 310 310 309 307 307 308 308 308
312 313 314 314 313 314 320 317 316 318 319 318 320 321 316 317 316 325 326 326 319 313 311 309 308 305 308 300 300 309 317 309 314 312 312 311 310 314 311 307 300 306 312 307 302 307 302 309 303 297 305 297 293 298 300 305 305 305 306 306 308 308 308 309 308 310 311 312 312 312 312 312 310 310 309 310 310 310 309 309 309 309 308 307 307 308 308
312 313 313 312 316 320 319 320 323 321 320 321 320 320 316 320 326 326 324 320 323 323 314 311 306 306 306 304 308 313 312 303 310 307 310 306 305 308 307 306 301 307 307 303 302 300 305 312 303 298 296 294 296 306 306 306 306 305 305 306 308 308 307 309 311 310 311 310 311 311 311 310 310 310 309 308 309 309 308 308 308 307 307 307 308 307 308
312 312 316 319 319 317 315 317 319 321 320 316 318 319 320 317 316 317 316 312 317 316 315 313 306 309 314 309 304 313 310 306 310 304 306 310 304 304 308 304 304 302 297 299 302 308 305 303 300 296 299 303 304 305 307 307 307 309 309 309 310 309 309 309 309 307 307 307 307 307 308 308 308 309 309 309 309 308 308 308 309 309 309 309 308 309 308
311 318 319 320 317 312 315 320 323 316 320 322 321 316 315 319 314 311 312 314 314 308 313 309 308 312 309 306 308 314 309 304 304 306 301 310 303 298 306 297 305 304 296 297 301 310 298 299 299 298 295 301 304 304 309 307 308 308 309 309 310 310 310 309 310 309 306 305 305 308 310 308 308 308 310 309 309 310 311 309 309 309 309 309 309 310 308
320 319 317 316 314 317 323 321 318 320 321 315 319 315 309 315 307 301 314 304 304 312 312 307 312 310 312 307 304 306 316 308 301 300 301 303 310 300 303 301 305 300 292 294 298 307 297 291 297 295 293 299 301 305 307 307 307 307 309 310 311 311 311 310 309 310 310 309 309 307 309 310 311 311 311 310 309 309 309 310 311 311 309 309 311 310 308
319 319 315 314 317 321 323 324 324 322 316 312 312 312 309 301 311 312 308 304 303 306 314 308 312 311 311 313 314 306 316 316 315 313 308 302 309 307 301 298 306 296 294 293 302 303 299 296 293 292 296 302 303 305 307 307 307 308 309 310 310 310 309 309 309 310 310 309 309 308 308 309 308 308 310 310 309 309 311 310 310 309 308 309 309 309 309
313 314 320 322 322 322 322 319 319 314 314 315 306 298 303 306 312 309 310 301 302 307 308 309 304 306 306 309 309 311 312 316 310 309 304 300 308 302 299 301 303 296 290 300 304 301 299 289 290 291 300 302 305 305 306 306 306 306 307 308 309 309 310 308 308 309 310 308 308 308 308 308 309 310 310 310 310 310 309 311 310 310 308 310 310 309 309
309 312 319 319 317 316 319 307 314 312 298 298 298 294 302 297 304 303 305 309 313 309 309 316 312 315 315 315 312 314 310 314 308 308 305 302 307 305 301 298 297 291 298 305 299 294 290 289 290 296 300 301 304 305 304 306 307 307 307 309 309 309 308 308 308 308 308 308 308 308 308 308 308 309 309 310 310 309 310 310 310 310 311 310 310 309 309
321 321 317 318 312 313 313 294 313 306 299 300 295 291 298 298 303 304 302 306 309 307 309 307 308 308 302 312 308 309 313 312 311 307 304 308 302 300 298 293 296 302 305 299 297 288 292 296 298 299 304 305 305 305 306 307 307 306 305 306 306 306 306 306 306 306 307 308 308 308 308 308 309 309 308 309 309 309 309 311 312 311 311 310 309 310 309
315 312 311 306 301 308 299 289 310 302 293 298 300 301 302 299 302 304 302 309 310 307 310 310 313 309 306 312 312 311 307 303 311 303 300 303 300 301 296 295 301 300 295 292 295 294 293 289 299 302 302 301 303 305 306 306 305 303 303 303 304 304 304 304 304 304 304 305 306 306 306 307 307 307 308 307 308 309 310 309 312 311 310 310 309 309 311
313 304 301 295 291 297 298 294 297 294 304 305 305 307 305 305 306 305 312 312 310 312 309 313 308 309 306 311 304 303 308 308 302 302 304 303 297 293 300 304 303 296 293 293 289 287 290 295 299 301 302 302 303 303 303 303 303 303 302 301 302 303 303 303 303 303 303 304 305 305 305 305 306 306 306 307 308 308 309 310 311 311 312 310 309 309 310
311 313 305 300 294 299 307 296 299 303 306 309 314 309 309 313 313 313 314 313 312 312 310 313 311 310 305 307 305 307 306 307 300 304 304 298 296 298 303 297 292 292 287 286 288 290 294 299 300 301 301 301 302 302 302 302 302 301 301 301 302 301 301 301 302 302 303 304 304 304 304 304 306 307 307 306 307 308 309 310 312 314 312 310 309 309 309
299 307 308 295 293 299 298 304 309 309 316 311 312 313 313 317 312 311 315 314 313 312 311 309 308 308 305 311 306 301 302 304 299 300 302 298 301 298 292 294 293 294 293 291 291 295 297 299 300 300 301 302 301 300 300 300 301 301 301 300 301 300 300 301 301 301 302 302 302 302 303 305 304 304 306 307 307 308 309 309 312 312 312 310 308 308 309
314 303 299 298 304 303 305 309 311 307 310 315 313 311 311 311 311 312 314 316 313 311 311 310 308 306 301 304 301 299 297 301 294 293 299 298 293 288 290 287 290 288 294 297 296 299 297 299 301 301 300 300 301 300 300 300 300 301 301 300 300 300 300 301 301 302 301 301 302 303 302 303 304 304 305 306 305 307 308 309 310 310 310 309 308 307 307
302 301 308 301 304 305 307 308 307 309 310 311 310 309 312 310 310 312 316 313 313 311 312 312 309 303 303 302 294 297 296 300 298 296 296 293 294 295 294 288 291 291 294 298 299 299 299 300 301 300 300 300 300 301 301 300 301 301 301 301 301 301 301 301 301 301 301 300 301 302 302 302 302 302 302 303 306 308 307 308 309 309 310 308 307 307 308
312 305 305 311 305 305 307 303 305 305 305 306 309 309 310 310 311 312 316 314 314 311 310 304 303 301 297 295 293 290 293 301 298 295 294 293 296 295 292 289 295 298 298 300 300 299 300 301 299 299 299 300 300 301 301 302 301 301 301 301 301 301 301 301 301 300 301 301 302 302 301 301 302 303 304 303 303 306 307 307 308 309 309 307 307 307 307
302 299 303 308 311 310 311 311 313 311 309 310 312 313 313 310 312 318 319 315 312 306 303 306 304 298 294 292 297 299 302 298 295 296 294 297 301 296 295 296 298 299 298 298 298 299 300 300 300 300 301 300 301 301 301 301 301 301 300 301 301 301 301 301 301 301 302 302 301 302 302 303 303 304 304 304 303 302 303 306 307 308 308 308 308 308 308
Wind_Speed
20 21 21 21 21 21 22 22 21 22 24 11 9 9 7 7 5 6 5 5 3 6 8 2 3 3 6 5 6 4 2 7 3 7 2 6 2 3 3 7 5 2 8 6 5 6 2 4 4 8 4 6 7 4 8 2 10 6 6 13 3 4 5 5 3 5 5 2 4 7 4 7 6 8 7 12 13 11 11 7 8 2 9 9 7 5 6
20 21 21 21 21 21 22 21 20 18 17 8 9 8 8 9 2 6 6 4 6 6 5 2 2 4 2 4 5 0 6 7 7 7 5 8 2 8 5 6 3 5 3 0 5 6 3 2 4 2 3 4 5 6 5 8 7 7 8 6 10 6 4 5 2 4 5 5 3 7 5 6 7 8 6 6 10 6 8 11 5 6 4 9 4 7 8
20 20 21 21 21 22 23 22 19 17 15 11 5 6 9 8 7 5 5 5 7 4 3 2 1 3 4 3 4 3 6 4 7 9 6 7 6 5 2 8 1 1 1 3 6 4 6 4 6 8 5 6 2 3 6 9 7 8 8 9 8 3 5 3 5 7 10 9 6 7 10 11 5 5 5 3 6 6 6 5 2 3 5 2 8 9 8
19 20 21 21 22 23 24 24 23 18 14 13 4 6 8 5 3 6 4 3 5 2 2 4 5 3 4 3 2 4 3 7 1 7 2 4 5 4 7 0 6 2 8 5 5 4 4 4 4 6 5 3 2 5 2 5 9 9 10 9 6 5 5 2 3 3 4 2 5 9 6 6 7 10 7 5 8 7 8 4 6 3 7 10 11 17 15
19 20 21 21 22 23 24 25 25 25 16 9 4 6 5 8 4 5 4 3 2 2 4 4 3 7 4 2 4 3 1 5 5 3 6 5 8 2 5 6 6 1 6 1 5 2 5 5 5 9 4 5 5 0 5 3 6 9 9 6 5 4 5 5 3 4 6 6 7 6 3 8 14 16 14 5 5 5 6 4 7 6 4 7 8 18 18
19 20 20 21 21 22 24 25 27 27 26 13 5 7 8 4 5 4 5 4 4 5 5 6 5 3 4 5 4 6 5 6 5 5 2 7 3 8 5 7 1 8 5 6 5 3 2 3 8 5 5 3 5 6 3 2 2 6 3 3 3 5 6 7 8 7 7 5 8 7 6 12 4 8 5 3 8 10 8 6 12 3 4 7 11 13 15
19 20 20 21 20 23 24 26 26 28 30 20 4 7 8 6 3 3 3 5 4 5 5 6 4 6 7 4 7 5 6 6 3 7 5 1 2 0 3 1 6 6 5 7 4 10 4 5 7 4 3 7 3 5 4 4 2 4 4 2 5 3 5 9 3 8 5 7 8 6 7 3 5 5 5 5 3 4 7 11 9 5 10 16 15 10 12
18 19 19 20 21 22 23 25 26 28 31 20 4 5 8 8 7 5 6 1 1 2 2 1 2 6 2 3 5 4 5 6 5 5 8 4 4 2 3 1 1 2 3 1 4 3 7 5 6 1 7 3 4 6 6 3 3 5 1 3 6 3 3 7 6 6 5 4 4 4 7 5 4 6 1 0 6 6 5 6 3 5 15 13 17 17 13
18 18 19 20 20 21 22 23 25 28 26 8 10 7 8 8 6 4 7 7 4 5 3 1 2 3 2 4 5 5 5 6 4 4 6 8 7 7 7 4 3 4 3 4 7 5 2 6 7 5 1 7 4 2 3 5 4 1 3 5 1 3 3 3 2 6 7 8 7 9 7 5 7 9 6 7 7 8 3 7 3 2 11 13 17 14 12
16 17 18 20 19 20 21 21 23 25 26 7 8 9 9 8 8 8 5 6 2 6 4 2 4 5 5 5 5 6 6 4 5 1 5 2 4 6 8 4 7 4 2 4 5 7 7 5 5 6 6 3 3 3 2 2 5 4 3 5 4 3 5 5 3 6 7 10 6 9 10 8 10 11 10 7 7 8 5 6 5 4 18 16 13 10 10
16 16 17 18 17 20 21 20 21 22 15 9 7 8 10 10 9 9 6 7 2 4 4 6 3 2 4 1 4 1 4 4 5 7 4 3 6 2 4 5 4 4 4 6 5 7 7 7 7 5 4 4 3 3 2 4 6 5 5 2 4 5 5 6 3 5 5 12 8 4 3 8 7 5 11 10 11 9 9 6 6 4 11 7 11 12 14
15 16 17 18 18 19 19 20 20 18 15 7 6 6 9 9 7 6 7 6 5 1 1 6 6 3 4 2 2 4 6 6 6 2 3 5 5 5 5 4 5 3 6 4 5 6 4 5 9 7 8 7 5 6 4 5 5 4 6 7 6 4 2 6 6 6 7 9 5 5 8 7 3 5 6 7 11 10 9 6 10 6 10 15 15 16 15
14 15 16 17 19 19 18 19 19 18 17 11 8 7 10 10 6 6 7 6 5 4 4 6 2 5 5 6 5 5 5 3 5 4 4 3 3 3 5 4 2 5 3 5 1 4 7 3 2 6 5 6 7 8 10 9 9 5 4 6 6 4 5 4 7 7 6 7 6 4 6 5 2 5 8 8 7 7 11 12 9 6 8 15 15 14 14
13 14 15 16 18 18 20 19 18 19 18 14 8 8 8 10 8 7 6 6 8 4 6 2 5 5 4 7 4 2 3 4 3 3 3 2 2 4 3 5 5 1 5 1 2 4 4 3 4 4 5 4 5 6 7 4 4 3 5 4 4 7 5 5 6 4 7 8 9 7 6 6 5 3 4 4 4 5 5 6 6 5 7 11 14 14 13
12 13 14 15 17 17 19 18 19 19 20 20 7 6 7 8 7 6 5 6 7 5 4 4 5 4 4 3 4 2 4 2 4 4 4 3 1 5 7 4 3 5 1 5 3 3 4 3 6 4 5 7 6 5 7 5 5 3 4 4 4 4 7 2 5 5 7 8 8 10 6 8 8 7 6 5 1 3 2 7 9 9 10 10 13 15 14
11 12 13 14 16 17 18 18 18 17 19 22 9 8 5 8 7 6 5 6 7 5 5 5 4 4 3 3 2 5 5 3 3 1 4 2 2 2 3 2 2 3 5 2 3 5 5 6 6 7 2 2 6 5 5 6 4 4 5 4 6 5 7 4 5 6 6 8 7 7 8 3 3 10 8 3 3 5 6 4 8 8 11 13 11 12 11
10 11 12 13 14 16 17 17 17 15 15 17 9 8 5 9 7 7 7 6 6 2 5 4 3 1 4 1 2 3 2 3 4 4 4 1 3 1 4 1 3 2 4 5 4 5 6 7 7 6 5 9 4 4 5 3 4 6 5 4 8 8 6 6 7 9 7 6 7 8 5 3 6 10 8 7 7 8 3 6 8 12 9 11 12 13 10
10 10 12 13 13 15 16 16 17 15 16 16 9 6 6 7 8 8 5 5 6 5 6 6 6 4 4 1 2 3 4 3 5 3 5 3 2 2 2 2 5 5 0 6 4 6 7 6 7 6 6 3 2 3 4 1 7 6 7 6 6 7 7 8 9 8 8 8 6 7 5 4 10 10 8 7 6 5 6 6 4 15 12 9 9 10 9
10 10 11 12 13 14 15 16 17 17 16 16 12 7 2 6 7 7 5 5 4 5 6 5 3 2 4 5 3 3 4 5 5 4 3 3 1 3 1 3 4 3 4 5 4 6 6 6 5 5 5 3 4 6 2 5 5 3 6 7 6 6 6 7 8 8 8 7 8 5 5 4 7 7 8 8 6 6 4 6 4 8 10 3 5 5 11
9 9 10 11 12 13 14 15 15 15 16 14 10 5 7 4 4 6 6 6 5 6 4 7 7 6 4 5 5 4 1 3 1 5 3 3 2 7 4 4 6 3 5 3 6 5 6 7 4 2 6 4 1 5 4 6 2 4 5 6 6 5 7 7 8 6 7 7 7 6 5 7 7 10 6 3 6 5 7 6 9 8 3 10 9 8 9
9 9 9 10 10 12 12 14 14 14 15 14 11 6 5 3 4 4 4 4 5 5 1 4 4 5 4 3 2 2 2 4 4 5 4 4 4 4 3 3 3 2 3 2 6 5 5 7 6 5 5 6 3 3 5 6 7 7 5 4 7 1 7 5 7 6 7 8 8 1 5 8 7 8 2 7 8 7 7 7 8 7 7 7 6 9 7
8 8 9 9 10 11 11 12 13 14 14 14 13 5 6 2 3 3 4 4 4 6 6 10 6 6 6 4 3 4 6 7 7 5 5 5 2 3 4 1 5 4 4 3 6 5 1 6 6 5 5 7 6 7 4 6 7 5 8 2 5 5 5 5 2 6 4 4 4 4 5 6 7 9 11 10 9 6 6 5 8 6 7 9 6 10 11
8 8 9 9 9 10 10 11 12 13 14 14 12 5 7 7 6 7 6 5 5 7 7 8 6 4 3 3 2 4 5 4 3 2 3 5 4 1 3 4 4 5 4 4 6 7 5 5 4 3 7 1 3 7 9 8 8 4 5 8 5 5 3 4 3 4 3 5 6 7 6 6 9 8 8 10 9 7 4 7 7 7 7 3 7 13 9
8 8 8 9 9 10 10 11 12 11 13 12 9 6 6 6 7 7 6 6 5 6 5 5 5 4 1 2 2 4 3 5 4 3 4 2 5 2 4 6 4 3 4 6 4 5 5 4 5 5 7 6 9 7 4 2 7 8 10 4 7 7 4 5 5 1 2 3 9 8 7 6 8 8 9 8 6 4 3 3 2 10 8 6 5 5 10
8 8 9 9 10 10 10 10 10 11 11 12 11 8 9 8 3 6 6 5 3 5 5 1 3 7 2 3 3 4 3 2 3 3 4 5 4 4 1 2 3 2 2 4 2 4 3 5 6 4 7 4 5 4 5 2 5 8 6 7 10 3 2 7 7 7 6 1 5 6 7 6 5 6 6 8 7 6 4 3 4 8 8 6 7 7 6
7 8 9 9 9 10 9 9 9 9 11 12 11 6 6 6 6 6 5 6 5 5 5 3 3 2 1 4 4 3 7 3 4 4 4 4 5 4 3 4 3 1 4 3 3 5 5 5 4 3 2 4 2 5 4 3 4 6 7 3 4 8 14 5 5 8 6 4 7 4 3 4 5 7 9 7 10 9 9 7 8 8 6 7 6 1 4
7 8 9 9 9 9 8 8 8 8 10 10 8 7 6 6 4 4 5 5 7 3 4 1 6 4 2 1 5 4 3 3 4 4 4 5 6 3 4 3 4 3 4 2 3 6 4 5 5 5 2 4 2 5 5 7 4 5 6 1 1 7 7 12 9 6 6 2 2 8 7 6 7 7 5 8 11 13 12 11 9 9 6 6 5 4 1
7 8 9 8 8 7 7 7 6 8 8 10 8 7 7 5 2 2 3 4 4 5 5 6 4 5 5 7 1 3 3 3 3 4 4 4 5 4 4 3 4 3 4 4 4 4 4 6 5 3 4 4 5 6 4 5 4 6 7 1 2 2 5 6 3 4 3 7 9 8 7 3 2 2 4 3 6 7 10 7 6 5 6 5 4 5 9
7 8 8 7 6 7 6 7 7 7 9 9 7 7 6 5 3 2 0 1 5 5 6 7 8 5 4 2 1 3 2 5 2 3 3 3 3 4 3 3 3 5 0 0 3 4 6 6 2 2 2 5 5 6 7 8 7 9 1 3 0 3 7 7 7 6 4 3 5 6 4 2 6 3 2 3 5 3 6 10 7 6 7 8 6 5 4
7 7 7 7 7 6 7 6 7 9 8 6 5 5 4 5 1 3 3 3 5 4 5 5 5 1 4 6 3 2 2 0 3 3 2 4 7 7 8 6 4 2 3 1 3 3 4 4 2 1 3 3 4 5 5 6 7 4 4 3 2 2 4 5 6 5 3 1 1 1 7 3 3 2 4 4 3 7 6 7 8 8 7 9 14 12 7
7 7 7 7 7 7 6 7 8 8 9 5 5 4 3 3 4 4 5 4 4 4 5 5 5 2 5 1 2 3 2 1 3 6 5 4 4 3 2 2 2 1 1 2 2 2 3 4 2 2 1 2 2 4 5 6 7 5 3 3 4 4 5 7 8 7 6 4 3 2 5 5 4 4 4 6 7 5 5 6 8 8 8 5 6 2 6
6 6 6 8 8 8 7 8 8 7 6 5 4 3 4 4 3 5 5 3 4 4 5 5 5 3 1 3 3 1 2 0 2 1 1 1 0 1 2 5 2 2 1 2 2 2 5 3 4 3 3 4 5 4 5 7 7 9 4 6 5 4 4 6 7 7 6 7 5 4 6 5 3 6 6 8 9 10 8 8 7 11 10 8 7 6 6
5 6 7 7 7 6 5 7 8 6 5 9 13 12 13 13 8 7 4 4 5 5 4 5 5 3 2 2 5 4 2 3 3 1 2 1 2 1 4 3 2 1 4 3 2 2 2 2 1 4 3 4 4 4 6 8 8 7 6 6 6 5 5 5 5 4 4 6 7 8 5 5 4 8 9 5 7 6 6 7 8 8 8 8 7 4 5
6 7 7 6 4 5 4 5 7 9 10 6 4 4 4 6 7 4 4 4 4 4 4 4 4 5 2 4 2 7 8 5 0 1 2 3 1 3 1 4 1 3 3 3 1 3 2 1 5 1 5 3 6 6 5 8 7 7 5 5 5 5 5 4 6 7 5 6 7 7 5 10 10 10 11 9 7 8 8 7 7 7 8 7 6 5 7
6 7 6 5 4 4 7 7 4 4 3 4 2 5 4 1 5 3 4 4 3 4 4 5 3 6 1 2 3 2 3 7 3 6 3 2 2 3 3 3 2 4 1 3 4 5 4 4 2 3 5 4 4 4 4 7 7 5 5 4 2 4 6 6 6 4 6 8 9 7 7 7 8 8 9 8 8 10 10 9 8 9 8 7 7 10 9
6 6 7 6 8 8 5 7 5 4 3 2 4 4 4 5 5 4 5 4 3 5 5 3 5 4 6 4 3 3 3 5 1 2 2 0 3 2 4 1 3 2 1 3 4 1 2 3 1 3 0 3 5 5 5 4 6 2 3 4 5 7 4 4 6 9 7 5 5 5 6 7 8 8 8 8 9 10 10 10 11 11 11 9 9 8 7
6 7 9 10 6 5 5 5 4 1 3 3 4 5 1 5 4 5 6 5 5 4 4 5 6 3 5 4 2 3 3 3 3 3 2 2 4 3 3 3 4 1 2 2 4 3 3 4 5 5 2 4 3 11 13 9 9 8 7 7 9 13 14 11 11 9 6 5 5 5 6 7 8 6 7 8 10 10 11 13 12 12 12 11 10 10 8
5 8 6 4 4 5 3 1 3 3 5 7 4 2 4 4 3 3 4 5 4 5 4 4 6 6 5 6 2 3 4 2 2 3 1 1 4 3 1 3 3 2 4 4 2 4 0 3 6 5 4 9 8 8 3 4 4 2 7 8 8 7 6 8 10 13 10 6 6 6 7 7 7 7 7 9 9 11 11 11 10 10 9 8 8 7 7
6 5 5 4 4 3 3 3 3 1 5 5 4 3 3 4 4 3 3 3 3 5 5 5 2 8 7 4 2 3 4 5 5 3 3 3 3 2 0 3 3 2 2 4 1 1 5 3 3 3 2 4 3 6 4 7 6 7 7 9 8 6 4 4 4 4 6 10 12 14 4 6 8 7 7 8 8 7 9 9 10 11 10 9 8 7 9
5 5 4 3 2 3 5 5 5 3 4 3 3 3 3 3 4 2 4 3 3 2 2 2 3 5 5 5 5 1 2 5 4 4 4 1 2 3 2 3 1 3 4 5 2 2 3 4 4 1 3 3 3 3 6 8 9 6 6 3 6 6 6 7 6 6 6 5 6 11 16 14 12 7 6 7 6 9 11 9 8 6 7 10 8 6 10
4 6 5 2 3 2 2 0 3 3 2 3 2 3 2 2 5 3 2 2 3 1 2 1 3 1 5 2 8 2 4 4 2 1 3 2 2 3 3 2 1 4 5 1 1 2 1 2 2 1 1 3 5 5 6 6 5 5 5 5 6 6 8 8 8 8 8 8 6 5 5 2 3 9 8 4 4 7 8 4 2 3 3 12 10 12 11
3 2 4 5 5 2 2 3 3 3 3 3 2 2 3 3 0 0 3 2 2 2 1 4 1 2 5 4 3 2 2 2 3 3 3 2 2 3 4 2 2 2 2 3 3 1 3 2 0 2 5 7 6 4 4 5 6 7 7 6 6 7 8 8 8 7 6 6 7 8 8 9 8 5 4 3 4 3 3 3 5 8 11 10 12 12 10
10 5 5 5 4 3 2 3 3 3 1 1 0 2 2 2 2 1 3 4 2 2 2 3 2 3 2 0 1 4 4 2 2 2 3 1 3 2 3 2 2 3 3 4 4 3 3 3 1 2 3 2 3 4 5 4 5 6 6 6 7 7 9 10 9 8 7 7 7 7 6 7 6 5 6 7 7 7 6 6 6 5 5 5 9 11 11
5 4 4 2 3 2 2 3 1 0 1 1 2 2 3 5 2 1 4 2 3 0 0 5 4 4 3 5 4 3 2 3 3 3 4 1 2 2 3 3 3 4 3 5 2 1 0 1 2 2 1 1 3 5 5 5 5 7 8 9 9 9 9 9 10 9 9 8 6 7 8 7 6 4 5 7 10 13 10 7 6 7 7 6 7 12 11
5 4 2 1 1 1 1 2 4 3 3 4 4 6 1 3 0 1 4 3 1 6 10 3 3 4 3 4 3 4 2 1 3 2 1 2 5 3 3 4 4 3 2 4 4 2 2 1 3 1 4 7 7 6 6 7 7 7 8 8 9 9 9 9 9 10 9 8 8 7 7 7 7 7 4 2 4 8 8 7 6 7 6 4 9 13 9
5 3 1 1 2 2 2 2 1 3 5 4 6 2 3 4 2 3 5 7 6 6 5 5 3 0 3 1 3 1 3 2 2 3 2 2 4 3 3 1 3 3 2 4 4 2 1 2 2 3 4 4 6 6 6 7 7 7 8 8 9 10 10 9 9 9 9 8 7 7 6 6 6 7 7 6 6 6 7 9 8 8 6 5 5 10 10
5 5 2 1 3 2 4 3 5 7 5 2 5 3 1 4 5 6 4 2 6 4 2 2 1 1 4 1 3 4 4 3 3 1 1 4 4 3 1 4 2 2 2 3 5 4 3 3 4 5 5 5 5 7 7 8 9 9 9 10 11 11 11 10 9 9 9 9 9 8 7 7 7 4 6 7 7 6 6 7 7 5 5 6 6 9 9
4 2 2 3 3 2 6 8 8 5 6 4 3 0 1 4 3 2 3 1 5 5 2 2 3 2 4 4 4 5 2 4 3 1 1 3 3 2 1 3 2 2 3 4 1 3 2 2 4 5 6 7 7 8 10 9 10 11 11 11 11 12 12 11 10 9 9 9 9 8 8 7 7 6 7 7 7 5 3 5 4 5 4 6 5 7 10
5 3 2 2 3 5 7 3 5 5 8 5 3 4 4 2 1 2 2 2 5 2 2 2 2 2 3 3 5 4 3 3 3 2 2 3 3 2 2 4 6 3 2 2 3 5 5 5 6 7 6 8 9 8 8 9 10 12 12 12 12 11 11 11 10 10 9 9 8 8 8 9 9 9 7 7 9 5 1 1 2 2 2 3 3 4 8
2 3 4 4 6 8 8 7 6 4 8 8 6 4 2 3 2 3 1 4 3 3 3 2 1 3 2 3 2 3 3 1 3 1 4 4 3 5 5 7 5 5 5 5 6 5 6 7 6 6 9 8 8 10 12 13 13 13 12 13 12 12 11 11 12 14 11 8 8 7 7 7 7 7 9 9 8 5 3 4 4 5 4 3 3 2 4
4 3 5 7 9 9 6 7 5 4 3 5 5 4 4 3 1 1 3 5 4 2 4 2 1 1 2 0 2 3 1 2 4 3 6 6 4 5 5 4 5 5 4 5 6 5 5 5 7 7 6 8 10 11 11 12 12 12 11 11 11 10 10 9 8 11 12 10 9 9 9 7 6 6 5 7 12 10 6 5 3 4 6 6 5 1 4
2 3 6 6 9 10 10 5 5 4 3 6 5 3 4 4 1 1 4 5 3 5 5 3 1 2 0 2 2 2 2 4 2 5 5 4 3 4 5 5 4 3 2 1 2 4 7 7 6 7 8 7 8 10 10 11 12 12 11 11 10 10 9 8 8 9 9 7 9 8 7 7 7 6 5 5 9 11 8 5 3 5 7 7 8 8 4
Wind_Direction
330 334 336 338 340 338 336 339 342 346 347 356 352 316 291 251 242 63 257 113 262 263 269 308 284 34 39 236 156 303 170 335 68 316 59 303 246 235 258 24 327 76 342 134 209 230 68 44 308 82 96 47 12 39 329 25 268 268 0 323 119 339 253 259 344 358 70 88 150 186 230 307 271 231 252 212 221 210 228 248 353 294 110 115 120 98 150
331 335 337 340 340 338 336 336 343 347 2 345 308 299 297 310 357 131 79 238 266 276 314 86 92 40 112 326 25 215 350 339 15 6 36 341 23 5 30 160 276 17 7 235 302 108 85 150 354 158 272 88 14 4 356 335 14 12 20 344 357 274 200 275 288 211 202 192 101 261 241 275 241 201 196 262 250 277 350 351 342 294 238 122 150 122 143
332 335 339 341 340 339 335 334 338 349 349 342 316 314 319 307 336 306 137 206 237 286 11 4 60 64 28 346 94 154 152 29 315 328 16 328 6 296 114 353 66 284 304 322 355 114 308 151 222 8 88 78 359 65 354 4 20 30 10 321 326 310 338 250 231 218 207 193 194 194 199 204 247 251 234 299 343 352 304 244 270 266 308 245 109 125 126
334 337 341 342 342 340 336 334 335 343 354 329 281 292 301 279 229 253 153 234 174 117 301 356 346 164 195 179 84 300 21 127 211 277 359 332 335 341 338 225 289 145 213 191 227 206 147 283 123 224 148 136 80 21 18 7 10 359 327 329 322 341 309 3 49 348 28 29 274 304 172 193 230 224 261 238 261 257 263 313 319 325 24 75 127 138 151
337 338 342 344 344 340 337 336 336 336 348 344 292 284 245 283 315 9 355 313 51 44 356 50 357 34 2 1 325 17 327 337 133 54 308 72 321 343 325 349 300 330 292 337 192 262 211 188 112 239 161 90 101 80 19 70 27 336 316 23 315 303 283 160 173 244 334 15 346 331 336 297 205 225 198 214 270 281 277 269 233 61 115 96 131 144 148
339 342 344 346 344 342 340 339 337 338 332 342 255 301 297 312 48 350 46 313 5 343 84 338 67 47 295 74 267 352 12 9 16 145 59 291 196 309 92 288 250 354 19 325 357 147 269 154 220 145 76 141 158 193 185 58 89 303 329 30 305 328 280 250 174 210 212 290 359 329 332 348 291 148 47 197 226 251 259 260 273 326 28 129 157 154 145
338 343 346 348 346 344 344 340 342 339 332 329 236 308 335 348 355 59 327 313 43 9 29 337 49 42 4 72 345 64 4 77 11 343 10 81 12 201 297 343 7 2 7 47 54 359 5 350 32 332 111 241 147 175 153 148 233 220 352 5 21 319 252 321 9 272 164 229 241 237 273 41 351 67 171 331 16 246 253 260 258 329 103 137 152 135 134
340 343 347 350 349 347 344 343 345 342 338 323 283 50 343 26 344 8 337 318 24 246 199 341 210 82 271 281 44 3 4 42 33 71 344 19 62 262 269 11 18 349 309 142 117 218 94 217 256 122 346 7 306 359 31 45 126 302 58 338 79 276 37 6 308 321 305 260 223 292 265 290 293 248 288 226 265 288 264 263 264 153 126 144 136 139 131
342 345 350 352 351 348 345 347 350 344 344 347 358 41 12 338 20 340 333 313 59 298 299 217 287 127 74 36 54 8 37 49 352 57 356 4 25 359 26 20 303 315 25 64 66 75 135 357 22 36 275 3 32 338 65 333 15 1 312 239 290 247 295 152 254 285 269 245 205 219 251 267 273 272 238 218 226 239 230 241 215 152 135 141 144 144 133
342 347 351 353 352 349 348 351 352 353 334 354 353 19 2 354 356 344 334 307 143 260 144 165 269 79 49 29 44 333 85 47 331 62 72 32 8 5 344 3 319 120 270 60 40 10 3 8 356 348 0 334 331 206 123 313 330 351 360 54 297 323 290 274 233 243 252 259 196 236 231 234 244 239 244 225 243 246 241 243 211 147 142 155 163 147 135
342 348 352 354 353 352 351 351 354 359 355 17 347 352 12 1 346 334 323 315 224 9 325 68 29 35 144 127 131 323 69 77 56 337 74 360 81 8 339 3 360 14 37 36 360 317 311 315 307 321 289 284 278 289 291 232 249 288 306 327 236 263 275 277 320 268 270 267 217 183 226 235 246 241 225 215 228 207 235 198 98 54 150 140 143 134 144
344 348 353 355 354 353 350 350 352 358 3 330 300 317 20 346 333 327 317 321 320 160 309 52 16 78 46 101 43 49 54 52 103 261 63 29 30 20 39 87 316 59 23 302 285 296 285 268 260 243 271 277 274 284 282 283 278 182 238 265 298 259 213 260 275 264 258 280 140 227 229 234 17 38 345 192 208 214 229 111 104 71 118 125 134 147 158
345 348 354 355 354 353 351 349 350 353 359 343 326 346 19 356 330 346 329 325 303 30 37 78 74 57 37 42 38 51 15 71 64 41 60 21 57 62 38 27 19 38 320 322 318 252 257 239 224 278 246 233 235 245 238 228 236 220 227 241 240 244 228 226 244 245 258 260 226 236 226 63 44 62 45 19 53 61 104 100 92 101 126 141 140 149 154
346 348 354 356 354 352 351 350 350 351 352 351 327 321 16 3 4 353 359 349 322 54 349 162 100 48 39 68 43 76 192 73 17 331 96 294 79 44 60 17 26 270 304 324 276 304 250 199 203 199 195 226 197 228 227 209 201 213 243 230 203 269 315 263 259 194 245 240 233 221 71 203 128 142 139 146 116 132 154 138 115 119 135 144 149 156 155
345 349 353 356 354 352 351 349 352 352 350 345 302 306 28 8 3 343 317 304 317 338 77 37 28 87 32 43 318 274 191 117 206 131 49 314 191 50 29 41 357 354 47 322 276 198 292 301 248 242 197 203 202 194 133 217 156 251 258 226 224 230 248 354 285 219 216 243 241 227 206 254 202 173 145 214 181 239 109 152 141 161 151 144 151 150 154
346 350 353 356 355 352 350 350 351 354 356 346 328 350 36 18 342 339 334 317 325 319 54 15 9 319 279 94 16 327 333 308 67 85 172 155 10 123 142 299 65 320 296 265 283 295 270 259 256 241 261 268 272 136 221 151 160 155 229 234 236 215 223 273 261 267 205 229 253 226 236 219 352 148 145 182 125 62 89 214 187 161 162 168 168 160 169
346 348 352 355 356 351 349 349 350 355 356 1 338 322 4 25 2 343 337 321 300 341 56 47 329 97 288 150 221 196 222 340 354 324 351 332 112 11 170 234 200 273 5 286 249 249 239 227 243 263 197 196 154 279 113 195 172 173 196 226 233 214 217 211 226 253 250 236 220 233 235 133 133 117 121 111 110 103 177 216 211 161 188 167 178 191 203
345 350 351 356 354 351 349 347 350 351 354 353 337 311 322 27 359 338 324 320 324 327 64 18 347 340 32 56 334 353 292 314 246 195 207 140 247 240 41 21 290 152 357 275 281 257 261 265 261 262 270 54 113 90 256 27 222 196 179 200 201 206 218 206 228 227 237 245 241 239 106 116 130 137 128 122 122 151 211 208 99 155 166 156 180 167 174
346 349 353 352 352 350 347 346 348 350 353 354 336 286 222 26 2 351 327 312 330 330 41 46 347 358 346 315 319 335 355 358 327 288 270 226 88 69 326 280 318 274 167 276 289 268 269 267 283 289 270 64 338 262 255 207 241 190 159 190 209 206 220 209 230 239 241 222 240 227 79 105 128 130 140 119 160 189 190 90 161 164 122 144 190 93 82
342 349 350 350 349 349 347 346 346 348 351 358 347 316 305 351 21 14 352 342 330 310 327 40 335 359 65 324 345 327 11 205 243 285 298 332 108 285 275 238 163 276 265 225 262 266 272 278 269 327 288 267 161 313 245 246 287 278 185 200 242 193 203 216 205 221 240 249 247 221 199 143 188 128 135 72 274 76 95 95 74 91 134 165 129 93 98
340 345 347 348 347 345 346 344 345 345 348 352 349 320 315 97 353 45 355 338 303 313 32 34 355 340 330 320 3 337 272 306 308 304 349 334 37 310 266 336 20 299 338 3 296 340 321 293 337 337 313 302 64 288 266 273 225 192 224 218 235 155 237 219 227 208 236 218 230 30 41 143 140 163 196 98 82 118 115 121 119 109 104 64 98 103 79
337 340 342 345 342 344 344 344 342 341 343 346 337 293 281 52 64 33 334 301 287 280 299 323 323 308 330 351 352 336 333 343 32 358 320 317 121 280 9 259 248 280 350 337 292 266 332 338 332 291 299 314 291 257 272 264 260 158 185 210 242 189 247 17 1 351 324 21 69 179 194 121 102 81 97 108 119 113 81 76 103 129 124 133 132 110 106
333 336 340 339 339 341 343 340 339 337 337 345 342 307 314 339 354 349 305 292 261 256 266 267 251 254 237 245 318 325 330 336 306 217 267 288 290 212 282 301 20 2 334 324 312 310 305 275 252 260 300 309 134 327 325 297 274 88 219 181 279 43 39 47 297 238 71 170 87 99 133 139 114 118 104 113 114 112 138 140 171 136 116 145 125 118 120
330 334 336 338 338 340 339 337 332 332 331 336 334 315 315 334 321 333 320 269 269 300 270 249 271 220 260 125 155 151 217 217 240 334 68 292 272 268 39 11 22 243 339 19 14 311 324 316 289 314 289 305 344 305 290 306 293 359 338 236 210 231 229 228 238 46 143 188 162 171 153 135 142 130 138 112 124 110 123 94 89 95 114 89 74 128 125
328 331 333 335 336 336 333 331 329 327 328 328 324 283 262 264 318 1 324 330 325 321 322 15 238 62 72 41 329 278 243 356 92 206 213 170 260 292 320 274 339 8 205 276 287 284 259 282 288 285 292 1 31 300 57 21 297 6 332 347 320 262 205 222 233 227 219 131 151 163 162 161 141 171 151 157 120 107 83 106 97 117 101 118 109 108 139
327 330 329 332 332 330 329 324 327 327 323 329 322 309 321 326 348 313 285 269 276 271 281 308 81 275 339 290 214 59 47 331 276 200 225 246 195 244 280 149 201 137 304 305 300 290 307 299 298 318 312 293 40 294 288 131 260 266 277 307 359 283 278 263 206 218 206 148 127 116 113 177 192 195 193 150 152 148 129 102 99 99 115 109 125 205 146
326 329 328 329 330 328 324 325 325 321 320 317 314 299 295 308 308 321 342 353 317 225 217 137 259 219 172 341 59 303 262 264 235 253 209 209 260 216 223 233 271 267 256 287 340 306 300 290 293 285 292 291 11 275 289 275 258 268 276 194 32 352 317 323 311 240 208 308 261 169 192 206 196 225 225 191 167 147 152 161 173 172 160 148 150 151 50
327 327 329 332 329 331 324 318 320 322 310 308 288 277 267 275 283 340 307 333 334 319 313 298 310 20 330 282 76 243 143 232 266 248 241 233 204 245 270 274 262 284 23 17 283 265 276 279 270 5 324 293 271 269 255 260 274 264 252 255 9 172 214 268 291 315 346 314 349 360 344 332 68 202 223 187 118 165 149 139 150 168 175 160 195 181 159
322 327 330 330 328 324 324 313 311 315 312 304 282 276 247 244 267 173 217 316 271 301 290 285 272 280 315 47 138 223 88 289 266 265 282 280 272 261 248 312 347 88 27 275 279 286 285 285 76 262 291 315 286 259 265 260 251 259 235 117 215 330 328 308 312 324 212 52 3 4 335 48 331 304 191 216 146 144 171 145 153 174 177 180 187 199 215
318 326 324 322 320 321 308 311 311 294 310 297 274 256 245 164 208 34 78 352 338 318 283 298 302 322 259 269 242 36 137 150 257 283 311 9 4 21 36 24 20 26 104 5 10 319 4 323 328 275 198 192 264 306 276 274 270 266 133 186 236 319 311 291 283 286 288 49 57 341 292 328 210 147 231 177 198 184 182 172 178 194 206 210 170 159 180
322 321 317 315 311 308 301 295 287 299 295 274 273 273 256 177 99 50 40 330 333 296 290 279 269 308 260 135 13 220 270 129 8 55 42 51 58 15 46 282 139 117 239 145 223 201 193 235 163 247 256 229 270 247 266 277 270 266 140 153 190 227 265 292 293 275 260 223 203 283 296 257 289 272 196 189 164 171 180 196 178 190 189 252 316 153 217
321 321 314 308 304 297 292 285 286 297 275 268 322 349 15 4 16 347 337 303 300 259 265 286 269 208 238 242 189 279 250 240 115 357 41 321 355 289 260 285 310 63 348 298 305 277 266 231 225 216 211 219 224 263 251 254 258 268 234 227 228 239 245 249 264 271 266 257 217 223 246 257 310 286 248 193 172 169 189 195 196 127 146 174 215 268 241
313 319 315 312 308 300 294 284 289 289 283 314 306 273 278 275 295 284 292 285 250 252 268 279 276 292 200 227 268 193 92 219 189 240 184 200 273 16 271 202 185 88 65 279 234 277 91 261 174 245 222 159 217 247 247 245 249 254 254 240 198 212 232 250 253 269 268 278 262 239 226 270 235 250 265 219 210 208 199 204 210 151 155 175 207 248 335
297 318 320 331 334 333 311 305 289 288 270 266 246 180 150 194 224 230 317 302 283 280 263 253 272 250 236 134 161 289 283 275 6 38 266 171 168 267 323 302 218 254 157 254 35 258 156 282 261 190 105 236 240 266 256 255 258 255 238 240 213 210 211 221 248 246 252 261 249 249 205 206 207 213 235 231 216 200 195 201 206 156 169 176 181 217 232
297 298 310 317 326 330 298 289 278 241 271 263 82 75 100 184 328 254 244 311 303 220 221 229 238 290 48 211 301 101 196 263 137 206 251 129 257 267 124 246 85 288 100 315 244 241 236 225 145 221 232 178 201 232 250 261 254 228 229 228 314 312 257 238 246 231 235 226 237 235 239 245 243 236 226 217 206 195 193 192 211 173 169 184 194 200 203
283 303 306 300 308 284 266 208 239 246 253 331 53 92 111 209 223 234 259 266 278 313 287 307 273 302 322 317 133 216 249 245 265 272 350 256 132 308 278 301 257 214 113 219 281 215 268 101 181 255 100 231 230 225 250 300 351 322 266 270 210 226 249 224 237 249 229 227 249 253 249 249 246 241 233 228 219 211 207 209 211 205 193 193 203 207 195
275 295 297 285 265 229 243 251 173 89 22 39 72 101 209 282 225 256 235 239 215 237 288 318 308 282 263 342 56 84 285 313 132 276 99 312 334 264 244 247 326 51 197 223 216 230 267 306 271 268 216 252 325 11 352 347 9 353 34 18 20 16 350 341 338 324 303 281 250 244 256 254 251 244 244 231 220 211 206 209 214 214 215 210 204 208 205
300 299 277 246 238 257 245 189 33 72 101 98 140 215 199 206 225 205 200 224 174 168 232 230 271 317 290 284 349 61 274 303 356 324 162 293 283 268 29 293 128 240 293 303 64 151 227 243 250 251 274 42 49 69 25 76 100 18 23 18 23 38 359 353 6 330 309 278 271 269 258 260 249 256 245 233 224 226 221 216 211 213 223 218 213 215 214
280 240 229 245 265 318 2 60 96 49 282 235 214 263 213 218 233 222 203 190 167 224 204 242 232 247 270 314 103 100 346 331 315 326 331 107 294 300 18 292 90 268 277 272 102 153 254 209 225 231 354 342 17 4 359 53 60 44 32 12 13 13 11 358 346 353 348 339 324 307 296 252 279 264 236 241 238 230 230 219 217 216 208 205 208 216 218
235 247 256 233 235 34 107 124 146 227 248 263 215 249 256 203 235 242 148 205 213 291 230 204 294 312 358 330 326 221 5 295 314 343 357 69 126 297 72 278 115 269 280 286 82 199 278 285 313 344 79 50 93 40 36 26 38 40 42 7 350 356 350 350 345 345 347 349 352 343 330 345 347 342 333 315 271 225 212 214 205 156 218 222 217 215 222
217 257 269 322 17 0 357 236 208 250 252 245 239 221 268 243 215 210 257 256 304 230 329 275 221 299 2 316 265 310 131 250 251 241 285 298 89 270 241 271 44 279 284 303 77 240 280 343 335 340 125 46 53 31 25 21 9 8 352 352 334 339 338 337 337 345 349 347 341 323 311 331 314 327 318 327 8 350 291 187 195 78 349 292 221 198 221
347 299 321 308 304 310 237 235 247 255 236 246 288 264 239 265 99 282 341 293 184 176 198 260 208 176 218 260 353 324 114 53 307 302 303 291 105 300 326 304 190 273 322 67 187 225 233 251 236 70 32 31 31 34 358 11 358 351 351 343 337 329 331 334 326 327 335 330 330 330 331 331 326 292 259 270 281 266 284 279 210 189 197 219 254 225 206
302 288 257 279 254 229 264 270 198 237 290 271 328 310 273 265 276 283 212 207 101 242 195 266 228 274 35 127 359 355 25 28 286 229 243 287 129 230 280 309 295 273 330 344 325 46 24 333 14 81 127 214 288 4 13 351 341 333 328 335 334 329 334 331 331 325 322 322 323 323 327 329 333 323 307 282 263 253 230 205 207 215 214 218 268 240 203
263 265 240 214 258 214 196 267 154 21 326 260 199 230 231 235 127 290 252 191 188 322 196 204 188 209 230 165 164 195 216 174 239 269 254 142 274 275 266 278 305 6 353 287 84 73 269 77 31 50 40 64 21 3 341 354 344 337 333 337 339 335 328 327 325 326 321 323 323 333 326 328 334 346 351 320 270 245 234 227 198 188 195 205 242 249 211
267 225 253 287 300 21 62 325 247 186 230 217 224 257 210 278 143 188 296 31 181 187 214 191 262 263 301 141 215 161 285 323 113 294 248 282 274 270 281 312 354 298 341 309 326 323 57 32 309 297 10 357 332 345 360 352 353 342 343 337 338 338 332 331 333 332 327 324 327 327 323 324 317 322 317 283 294 297 289 259 195 175 182 202 230 229 199
238 238 183 184 298 276 217 255 205 252 254 248 240 234 66 299 24 158 238 254 257 139 170 208 221 311 269 109 288 327 211 205 268 211 285 275 271 304 347 21 118 312 321 310 324 1 67 239 187 35 22 344 355 0 349 353 343 339 327 334 339 328 329 327 326 324 317 314 317 317 314 303 308 306 307 311 303 301 291 276 251 213 166 148 248 241 194
273 275 278 303 278 242 204 241 226 227 253 235 99 46 67 232 179 220 231 316 330 323 7 5 319 55 309 263 260 174 222 190 269 334 277 289 330 315 106 302 327 71 312 326 4 3 2 20 62 64 8 1 345 338 338 347 334 329 335 329 325 322 319 325 322 316 318 319 317 316 313 312 304 300 299 300 295 292 291 270 256 219 177 173 169 262 219
266 247 257 249 245 233 227 232 249 265 56 47 56 308 118 31 355 321 308 263 295 303 4 343 297 211 235 147 219 274 309 80 291 263 291 309 289 292 10 294 336 73 44 356 311 198 148 71 8 16 358 4 359 346 355 346 333 338 329 321 316 311 317 321 319 311 308 307 307 303 303 304 303 301 295 291 294 299 319 304 257 222 191 151 162 232 234
302 326 278 251 243 267 279 323 46 327 273 246 186 230 267 292 335 323 293 284 265 280 306 299 326 320 299 332 315 328 307 114 279 32 349 320 298 304 304 317 348 356 107 223 13 54 26 29 11 4 16 359 5 356 337 328 344 340 335 326 322 322 320 316 309 312 314 312 315 334 331 330 326 309 307 317 294 296 31 219 250 196 166 142 140 190 236
257 251 249 262 280 276 276 308 310 338 17 344 330 317 279 252 235 224 226 265 261 248 255 162 194 295 297 309 324 335 290 1 356 333 264 303 344 326 328 329 352 348 21 41 31 41 15 11 5 1 15 0 0 5 6 355 348 343 336 332 328 324 330 339 338 321 309 308 312 325 310 304 302 311 317 304 277 271 252 220 216 215 151 100 71 318 184
253 254 249 240 255 277 308 297 316 319 289 270 292 312 322 294 251 254 204 253 272 283 85 247 320 333 316 316 242 258 21 31 247 285 324 5 4 335 344 340 6 45 50 40 50 20 27 29 24 20 354 7 16 7 358 357 355 352 346 340 336 335 329 318 317 305 308 322 322 316 311 308 307 306 313 319 298 267 208 195 196 194 174 170 169 173 241
247 246 259 250 242 246 258 273 82 121 233 308 309 292 293 289 336 293 299 275 235 77 310 315 14 293 254 259 317 341 291 240 284 356 331 46 339 350 1 1 7 26 27 1 40 56 71 63 38 9 18 13 7 7 2 359 1 356 354 344 343 343 332 327 327 315 311 323 312 308 303 306 306 295 290 311 304 285 253 177 176 185 172 170 169 171 192